"Period start","avg(HW err(1)/warn(2) (#))","avg(Visibility (m))","avg(Weather code (#))","avg(Precip intensity (mm/h))","min(HW err(1)/warn(2) (#))","max(HW err(1)/warn(2) (#))","std(HW err(1)/warn(2) (#))","med(HW err(1)/warn(2) (#))","min(Visibility (m))","max(Visibility (m))","std(Visibility (m))","med(Visibility (m))","min(Weather code (#))","max(Weather code (#))","std(Weather code (#))","med(Weather code (#))","min(Precip intensity (mm/h))","max(Precip intensity (mm/h))","std(Precip intensity (mm/h))","med(Precip intensity (mm/h))"
2013-10-10 00:00:00,2,39910,78,0.00,2,2,0,2,31861,50000,5284,39494,78,78,0,78,0.00,0.00,0.00,0.00
2013-10-10 00:10:00,2,41498,16,0.00,2,2,0,2,35493,46078,3344,40834,0,78,31,0,0.00,0.00,0.00,0.00
2013-10-10 00:20:00,2,47787,45,0.01,2,2,0,2,40486,50000,3398,50000,0,78,37,71,0.00,0.10,0.03,0.00
2013-10-10 00:30:00,2,49692,0,0.00,2,2,0,2,48111,50000,635,50000,0,0,0,0,0.00,0.00,0.00,0.00
2013-10-10 00:40:00,2,49065,0,0.00,2,2,0,2,41780,50000,2439,50000,0,0,0,0,0.00,0.00,0.00,0.00
2013-10-10 00:50:00,2,48462,0,0.00,2,2,0,2,45043,50000,2010,49876,0,0,0,0,0.00,0.00,0.00,0.00
2013-10-10 01:00:00,2,48289,0,0.00,2,2,0,2,38571,50000,3430,50000,0,0,0,0,0.00,0.00,0.00,0.00
2013-10-10 01:10:00,2,46720,0,0.00,2,2,0,2,36917,50000,4227,48689,0,0,0,0,0.00,0.00,0.00,0.00
2013-10-10 01:20:00,2,46955,0,0.00,2,2,0,2,40980,50000,3402,48453,0,0,0,0,0.00,0.00,0.00,0.00
2013-10-10 01:30:00,2,48349,0,0.00,2,2,0,2,43457,50000,2561,50000,0,0,0,0,0.00,0.00,0.00,0.00
2013-10-10 01:40:00,2,43592,0,0.00,2,2,0,2,33046,50000,4514,45160,0,0,0,0,0.00,0.00,0.00,0.00
2013-10-10 01:50:00,2,45825,0,0.00,2,2,0,2,38164,50000,4634,48445,0,0,0,0,0.00,0.00,0.00,0.00
2013-10-10 02:00:00,2,47176,0,0.00,2,2,0,2,41185,50000,2971,47859,0,0,0,0,0.00,0.00,0.00,0.00
2013-10-10 02:10:00,2,43017,0,0.00,2,2,0,2,37386,49249,4215,42912,0,0,0,0,0.00,0.00,0.00,0.00
2013-10-10 02:20:00,2,43560,0,0.00,2,2,0,2,31502,50000,6526,44228,0,0,0,0,0.00,0.00,0.00,0.00
2013-10-10 02:30:00,2,49721,0,0.00,2,2,0,2,48491,50000,560,50000,0,0,0,0,0.00,0.00,0.00,0.00
2013-10-10 02:40:00,2,48164,0,0.00,2,2,0,2,44162,50000,2160,48804,0,0,0,0,0.00,0.00,0.00,0.00
2013-10-10 02:50:00,2,48559,0,0.00,2,2,0,2,45762,50000,1688,49644,0,0,0,0,0.00,0.00,0.00,0.00
2013-10-10 03:00:00,2,48762,0,0.00,2,2,0,2,46034,50000,1608,50000,0,0,0,0,0.00,0.00,0.00,0.00
2013-10-10 03:10:00,2,49400,0,0.00,2,2,0,2,47799,50000,927,50000,0,0,0,0,0.00,0.00,0.00,0.00
2013-10-10 03:20:00,2,48813,0,0.00,2,2,0,2,44393,50000,1651,49338,0,0,0,0,0.00,0.00,0.00,0.00
2013-10-10 03:30:00,2,47737,0,0.00,2,2,0,2,38980,50000,3589,50000,0,0,0,0,0.00,0.00,0.00,0.00
2013-10-10 03:40:00,2,49762,0,0.00,2,2,0,2,48445,50000,503,50000,0,0,0,0,0.00,0.00,0.00,0.00
2013-10-10 03:50:00,2,48227,0,0.00,2,2,0,2,44964,50000,1912,49298,0,0,0,0,0.00,0.00,0.00,0.00
2013-10-10 04:00:00,2,48008,0,0.00,2,2,0,2,39939,50000,3756,50000,0,0,0,0,0.00,0.00,0.00,0.00
2013-10-10 04:10:00,2,48852,0,0.00,2,2,0,2,40350,50000,2857,50000,0,0,0,0,0.00,0.00,0.00,0.00
2013-10-10 04:20:00,2,46700,0,0.00,2,2,0,2,38290,50000,4027,48788,0,0,0,0,0.00,0.00,0.00,0.00
2013-10-10 04:30:00,2,49662,0,0.00,2,2,0,2,48248,50000,570,50000,0,0,0,0,0.00,0.00,0.00,0.00
2013-10-10 04:40:00,2,50000,0,0.00,2,2,0,2,50000,50000,0,50000,0,0,0,0,0.00,0.00,0.00,0.00
2013-10-10 04:50:00,2,46852,0,0.00,2,2,0,2,36655,50000,4305,49274,0,0,0,0,0.00,0.00,0.00,0.00
2013-10-10 05:00:00,2,48200,0,0.00,2,2,0,2,42632,50000,2592,49554,0,0,0,0,0.00,0.00,0.00,0.00
2013-10-10 05:10:00,2,48528,0,0.00,2,2,0,2,40635,50000,2920,50000,0,0,0,0,0.00,0.00,0.00,0.00
2013-10-10 05:20:00,2,49305,0,0.00,2,2,0,2,44377,50000,1666,50000,0,0,0,0,0.00,0.00,0.00,0.00
2013-10-10 05:30:00,2,49418,0,0.00,2,2,0,2,46537,50000,1107,50000,0,0,0,0,0.00,0.00,0.00,0.00
2013-10-10 05:40:00,2,48450,0,0.00,2,2,0,2,40504,50000,2911,50000,0,0,0,0,0.00,0.00,0.00,0.00
2013-10-10 05:50:00,2,47553,0,0.00,2,2,0,2,39604,50000,3408,49978,0,0,0,0,0.00,0.00,0.00,0.00
2013-10-10 06:00:00,2,48417,0,0.00,2,2,0,2,43879,50000,2328,50000,0,0,0,0,0.00,0.00,0.00,0.00
2013-10-10 06:10:00,2,48017,0,0.00,2,2,0,2,42875,50000,2319,48972,0,0,0,0,0.00,0.00,0.00,0.00
2013-10-10 06:20:00,2,40461,0,0.00,2,2,0,2,26894,50000,6832,40858,0,0,0,0,0.00,0.00,0.00,0.00
2013-10-10 06:30:00,2,44681,0,0.00,2,2,0,2,28945,50000,7293,46896,0,0,0,0,0.00,0.00,0.00,0.00
2013-10-10 06:40:00,2,48698,0,0.00,2,2,0,2,44993,50000,1657,49532,0,0,0,0,0.00,0.00,0.00,0.00
2013-10-10 06:50:00,2,49464,0,0.00,2,2,0,2,45149,50000,1442,50000,0,0,0,0,0.00,0.00,0.00,0.00
2013-10-10 07:00:00,2,46638,0,0.00,2,2,0,2,39152,50000,3834,47932,0,0,0,0,0.00,0.00,0.00,0.00
2013-10-10 07:10:00,2,47806,0,0.00,2,2,0,2,39999,50000,3554,50000,0,0,0,0,0.00,0.00,0.00,0.00
2013-10-10 07:20:00,2,50000,0,0.00,2,2,0,2,50000,50000,0,50000,0,0,0,0,0.00,0.00,0.00,0.00
2013-10-10 07:30:00,2,48751,0,0.00,2,2,0,2,45995,50000,1463,49494,0,0,0,0,0.00,0.00,0.00,0.00
2013-10-10 07:40:00,2,48598,0,0.00,2,2,0,2,44185,50000,1921,49708,0,0,0,0,0.00,0.00,0.00,0.00
2013-10-10 07:50:00,2,50000,0,0.00,2,2,0,2,50000,50000,0,50000,0,0,0,0,0.00,0.00,0.00,0.00
2013-10-10 08:00:00,2,49614,0,0.00,2,2,0,2,46903,50000,932,50000,0,0,0,0,0.00,0.00,0.00,0.00
2013-10-10 08:10:00,2,49739,0,0.00,2,2,0,2,47394,50000,782,50000,0,0,0,0,0.00,0.00,0.00,0.00
2013-10-10 08:20:00,2,50000,0,0.00,2,2,0,2,50000,50000,0,50000,0,0,0,0,0.00,0.00,0.00,0.00
2013-10-10 08:30:00,2,50000,0,0.00,2,2,0,2,50000,50000,0,50000,0,0,0,0,0.00,0.00,0.00,0.00
2013-10-10 08:40:00,2,50000,0,0.00,2,2,0,2,50000,50000,0,50000,0,0,0,0,0.00,0.00,0.00,0.00
2013-10-10 08:50:00,2,50000,0,0.00,2,2,0,2,50000,50000,0,50000,0,0,0,0,0.00,0.00,0.00,0.00
2013-10-10 09:00:00,2,50000,0,0.00,2,2,0,2,50000,50000,0,50000,0,0,0,0,0.00,0.00,0.00,0.00
2013-10-10 09:10:00,2,50000,0,0.00,2,2,0,2,50000,50000,0,50000,0,0,0,0,0.00,0.00,0.00,0.00
2013-10-10 09:20:00,2,50000,0,0.00,2,2,0,2,50000,50000,0,50000,0,0,0,0,0.00,0.00,0.00,0.00
2013-10-10 09:30:00,2,50000,0,0.00,2,2,0,2,50000,50000,0,50000,0,0,0,0,0.00,0.00,0.00,0.00
2013-10-10 09:40:00,2,50000,0,0.00,2,2,0,2,50000,50000,0,50000,0,0,0,0,0.00,0.00,0.00,0.00
2013-10-10 09:50:00,2,50000,0,0.00,2,2,0,2,50000,50000,0,50000,0,0,0,0,0.00,0.00,0.00,0.00
2013-10-10 10:00:00,2,49937,0,0.00,2,2,0,2,49371,50000,189,50000,0,0,0,0,0.00,0.00,0.00,0.00
2013-10-10 10:10:00,2,50000,0,0.00,2,2,0,2,50000,50000,0,50000,0,0,0,0,0.00,0.00,0.00,0.00
2013-10-10 10:20:00,2,50000,0,0.00,2,2,0,2,50000,50000,0,50000,0,0,0,0,0.00,0.00,0.00,0.00
2013-10-10 10:30:00,2,50000,0,0.00,2,2,0,2,50000,50000,0,50000,0,0,0,0,0.00,0.00,0.00,0.00
2013-10-10 10:40:00,2,50000,0,0.00,2,2,0,2,50000,50000,0,50000,0,0,0,0,0.00,0.00,0.00,0.00
2013-10-10 10:50:00,2,50000,0,0.00,2,2,0,2,50000,50000,0,50000,0,0,0,0,0.00,0.00,0.00,0.00
2013-10-10 11:00:00,2,50000,0,0.00,2,2,0,2,50000,50000,0,50000,0,0,0,0,0.00,0.00,0.00,0.00
2013-10-10 11:10:00,2,49974,0,0.00,2,2,0,2,49738,50000,79,50000,0,0,0,0,0.00,0.00,0.00,0.00
2013-10-10 11:20:00,2,50000,0,0.00,2,2,0,2,50000,50000,0,50000,0,0,0,0,0.00,0.00,0.00,0.00
2013-10-10 11:30:00,2,50000,0,0.00,2,2,0,2,50000,50000,0,50000,0,0,0,0,0.00,0.00,0.00,0.00
2013-10-10 11:40:00,2,50000,0,0.00,2,2,0,2,50000,50000,0,50000,0,0,0,0,0.00,0.00,0.00,0.00
2013-10-10 11:50:00,2,50000,0,0.00,2,2,0,2,50000,50000,0,50000,0,0,0,0,0.00,0.00,0.00,0.00
2013-10-10 12:00:00,2,50000,0,0.00,2,2,0,2,50000,50000,0,50000,0,0,0,0,0.00,0.00,0.00,0.00
2013-10-10 12:10:00,2,50000,0,0.00,2,2,0,2,50000,50000,0,50000,0,0,0,0,0.00,0.00,0.00,0.00
2013-10-10 12:20:00,2,49990,0,0.00,2,2,0,2,49898,50000,31,50000,0,0,0,0,0.00,0.00,0.00,0.00
2013-10-10 12:30:00,2,50000,0,0.00,2,2,0,2,50000,50000,0,50000,0,0,0,0,0.00,0.00,0.00,0.00
2013-10-10 12:40:00,2,50000,0,0.00,2,2,0,2,50000,50000,0,50000,0,0,0,0,0.00,0.00,0.00,0.00
2013-10-10 12:50:00,2,50000,0,0.00,2,2,0,2,50000,50000,0,50000,0,0,0,0,0.00,0.00,0.00,0.00
2013-10-10 13:00:00,2,50000,0,0.00,2,2,0,2,50000,50000,0,50000,0,0,0,0,0.00,0.00,0.00,0.00
2013-10-10 13:10:00,2,50000,0,0.00,2,2,0,2,50000,50000,0,50000,0,0,0,0,0.00,0.00,0.00,0.00
2013-10-10 13:20:00,2,50000,0,0.00,2,2,0,2,50000,50000,0,50000,0,0,0,0,0.00,0.00,0.00,0.00
2013-10-10 13:30:00,2,49977,0,0.00,2,2,0,2,49769,50000,69,50000,0,0,0,0,0.00,0.00,0.00,0.00
2013-10-10 13:40:00,2,50000,0,0.00,2,2,0,2,50000,50000,0,50000,0,0,0,0,0.00,0.00,0.00,0.00
2013-10-10 13:50:00,2,50000,0,0.00,2,2,0,2,50000,50000,0,50000,0,0,0,0,0.00,0.00,0.00,0.00
2013-10-10 14:00:00,2,49918,0,0.00,2,2,0,2,49175,50000,248,50000,0,0,0,0,0.00,0.00,0.00,0.00
2013-10-10 14:10:00,2,50000,0,0.00,2,2,0,2,50000,50000,0,50000,0,0,0,0,0.00,0.00,0.00,0.00
2013-10-10 14:20:00,2,50000,0,0.00,2,2,0,2,50000,50000,0,50000,0,0,0,0,0.00,0.00,0.00,0.00
2013-10-10 14:30:00,2,50000,0,0.00,2,2,0,2,50000,50000,0,50000,0,0,0,0,0.00,0.00,0.00,0.00
2013-10-10 14:40:00,2,50000,0,0.00,2,2,0,2,50000,50000,0,50000,0,0,0,0,0.00,0.00,0.00,0.00
2013-10-10 14:50:00,2,50000,0,0.00,2,2,0,2,50000,50000,0,50000,0,0,0,0,0.00,0.00,0.00,0.00
2013-10-10 15:00:00,2,50000,0,0.00,2,2,0,2,50000,50000,0,50000,0,0,0,0,0.00,0.00,0.00,0.00
2013-10-10 15:10:00,2,50000,0,0.00,2,2,0,2,50000,50000,0,50000,0,0,0,0,0.00,0.00,0.00,0.00
2013-10-10 15:20:00,2,50000,0,0.00,2,2,0,2,50000,50000,0,50000,0,0,0,0,0.00,0.00,0.00,0.00
2013-10-10 15:30:00,2,50000,0,0.00,2,2,0,2,50000,50000,0,50000,0,0,0,0,0.00,0.00,0.00,0.00
2013-10-10 15:40:00,2,50000,0,0.00,2,2,0,2,50000,50000,0,50000,0,0,0,0,0.00,0.00,0.00,0.00
2013-10-10 15:50:00,2,49941,0,0.00,2,2,0,2,49407,50000,178,50000,0,0,0,0,0.00,0.00,0.00,0.00
2013-10-10 16:00:00,2,50000,0,0.00,2,2,0,2,50000,50000,0,50000,0,0,0,0,0.00,0.00,0.00,0.00
2013-10-10 16:10:00,2,50000,0,0.00,2,2,0,2,50000,50000,0,50000,0,0,0,0,0.00,0.00,0.00,0.00
2013-10-10 16:20:00,2,50000,0,0.00,2,2,0,2,50000,50000,0,50000,0,0,0,0,0.00,0.00,0.00,0.00
2013-10-10 16:30:00,2,49951,0,0.00,2,2,0,2,49507,50000,148,50000,0,0,0,0,0.00,0.00,0.00,0.00
2013-10-10 16:40:00,2,49965,0,0.00,2,2,0,2,49648,50000,106,50000,0,0,0,0,0.00,0.00,0.00,0.00
2013-10-10 16:50:00,2,49390,0,0.00,2,2,0,2,47389,50000,995,50000,0,0,0,0,0.00,0.00,0.00,0.00
2013-10-10 17:00:00,2,49885,0,0.00,2,2,0,2,49370,50000,232,50000,0,0,0,0,0.00,0.00,0.00,0.00
2013-10-10 17:10:00,2,50000,0,0.00,2,2,0,2,50000,50000,0,50000,0,0,0,0,0.00,0.00,0.00,0.00
2013-10-10 17:20:00,2,50000,0,0.00,2,2,0,2,50000,50000,0,50000,0,0,0,0,0.00,0.00,0.00,0.00
2013-10-10 17:30:00,2,49954,0,0.00,2,2,0,2,49542,50000,137,50000,0,0,0,0,0.00,0.00,0.00,0.00
2013-10-10 17:40:00,2,50000,0,0.00,2,2,0,2,50000,50000,0,50000,0,0,0,0,0.00,0.00,0.00,0.00
2013-10-10 17:50:00,2,50000,0,0.00,2,2,0,2,50000,50000,0,50000,0,0,0,0,0.00,0.00,0.00,0.00
2013-10-10 18:00:00,2,50000,0,0.00,2,2,0,2,50000,50000,0,50000,0,0,0,0,0.00,0.00,0.00,0.00
2013-10-10 18:10:00,2,50000,0,0.00,2,2,0,2,50000,50000,0,50000,0,0,0,0,0.00,0.00,0.00,0.00
2013-10-10 18:20:00,2,50000,0,0.00,2,2,0,2,50000,50000,0,50000,0,0,0,0,0.00,0.00,0.00,0.00
2013-10-10 18:30:00,2,49938,0,0.00,2,2,0,2,49720,50000,110,50000,0,0,0,0,0.00,0.00,0.00,0.00
2013-10-10 18:40:00,2,49912,0,0.00,2,2,0,2,49116,50000,265,50000,0,0,0,0,0.00,0.00,0.00,0.00
2013-10-10 18:50:00,2,50000,0,0.00,2,2,0,2,50000,50000,0,50000,0,0,0,0,0.00,0.00,0.00,0.00
2013-10-10 19:00:00,2,49917,0,0.00,2,2,0,2,49291,50000,212,50000,0,0,0,0,0.00,0.00,0.00,0.00
2013-10-10 19:10:00,2,50000,0,0.00,2,2,0,2,50000,50000,0,50000,0,0,0,0,0.00,0.00,0.00,0.00
2013-10-10 19:20:00,2,49538,0,0.00,2,2,0,2,47407,50000,933,50000,0,0,0,0,0.00,0.00,0.00,0.00
2013-10-10 19:30:00,2,50000,0,0.00,2,2,0,2,50000,50000,0,50000,0,0,0,0,0.00,0.00,0.00,0.00
2013-10-10 19:40:00,2,49774,0,0.00,2,2,0,2,48147,50000,556,50000,0,0,0,0,0.00,0.00,0.00,0.00
2013-10-10 19:50:00,2,49969,0,0.00,2,2,0,2,49694,50000,92,50000,0,0,0,0,0.00,0.00,0.00,0.00
2013-10-10 20:00:00,2,49458,0,0.00,2,2,0,2,47830,50000,827,50000,0,0,0,0,0.00,0.00,0.00,0.00
2013-10-10 20:10:00,2,49588,0,0.00,2,2,0,2,48077,50000,650,50000,0,0,0,0,0.00,0.00,0.00,0.00
2013-10-10 20:20:00,2,49388,0,0.00,2,2,0,2,45277,50000,1432,50000,0,0,0,0,0.00,0.00,0.00,0.00
2013-10-10 20:30:00,2,49578,0,0.00,2,2,0,2,45857,50000,1241,50000,0,0,0,0,0.00,0.00,0.00,0.00
2013-10-10 20:40:00,2,47024,0,0.00,2,2,0,2,39083,50000,3984,49694,0,0,0,0,0.00,0.00,0.00,0.00
2013-10-10 20:50:00,2,49521,0,0.00,2,2,0,2,47920,50000,693,49954,0,0,0,0,0.00,0.00,0.00,0.00
2013-10-10 21:00:00,2,49538,0,0.00,2,2,0,2,47592,50000,925,50000,0,0,0,0,0.00,0.00,0.00,0.00
2013-10-10 21:10:00,2,49202,0,0.00,2,2,0,2,45934,50000,1308,50000,0,0,0,0,0.00,0.00,0.00,0.00
2013-10-10 21:20:00,2,49355,0,0.00,2,2,0,2,44333,50000,1690,50000,0,0,0,0,0.00,0.00,0.00,0.00
2013-10-10 21:30:00,2,49663,0,0.00,2,2,0,2,46799,50000,956,50000,0,0,0,0,0.00,0.00,0.00,0.00
2013-10-10 21:40:00,2,49917,0,0.00,2,2,0,2,49169,50000,249,50000,0,0,0,0,0.00,0.00,0.00,0.00
2013-10-10 21:50:00,2,49640,0,0.00,2,2,0,2,46402,50000,1079,50000,0,0,0,0,0.00,0.00,0.00,0.00
2013-10-10 22:00:00,2,50000,0,0.00,2,2,0,2,50000,50000,0,50000,0,0,0,0,0.00,0.00,0.00,0.00
2013-10-10 22:10:00,2,49502,0,0.00,2,2,0,2,45948,50000,1217,50000,0,0,0,0,0.00,0.00,0.00,0.00
2013-10-10 22:20:00,2,49632,0,0.00,2,2,0,2,47648,50000,771,50000,0,0,0,0,0.00,0.00,0.00,0.00
2013-10-10 22:30:00,2,49048,0,0.00,2,2,0,2,45748,50000,1427,49840,0,0,0,0,0.00,0.00,0.00,0.00
2013-10-10 22:40:00,2,45459,0,0.00,2,2,0,2,38814,50000,3914,46104,0,0,0,0,0.00,0.00,0.00,0.00
2013-10-10 22:50:00,2,47854,0,0.00,2,2,0,2,42553,50000,2622,49256,0,0,0,0,0.00,0.00,0.00,0.00
2013-10-10 23:00:00,2,47222,0,0.00,2,2,0,2,42524,50000,2838,48081,0,0,0,0,0.00,0.00,0.00,0.00
2013-10-10 23:10:00,2,49270,0,0.00,2,2,0,2,46882,50000,1000,49944,0,0,0,0,0.00,0.00,0.00,0.00
2013-10-10 23:20:00,2,46790,0,0.00,2,2,0,2,37079,50000,4532,48939,0,0,0,0,0.00,0.00,0.00,0.00
2013-10-10 23:30:00,2,46464,0,0.00,2,2,0,2,39553,50000,3553,48007,0,0,0,0,0.00,0.00,0.00,0.00
2013-10-10 23:40:00,2,46836,0,0.00,2,2,0,2,37657,50000,3797,48043,0,0,0,0,0.00,0.00,0.00,0.00
2013-10-10 23:50:00,2,46060,0,0.00,2,2,0,2,34990,50000,4647,47716,0,0,0,0,0.00,0.00,0.00,0.00
